#timestamp,LO_Frequency,Hit,StdDev 
1621018815.0,286047022.4,N
1621018815.9,286047022.4,N
1621018835.8,286047022.5,Y
1621018855.6,286047011.4,P
1621018875.4,286047012.2,P
1621018895.3,286047013.7,P
1621018915.1,286047014.6,Y
1621018935.8,286047000.4,P
1621018955.7,286047000.9,N
1621018975.5,286046996.6,N
1621018995.4,286046998.1,N
1621019015.2,286047004.3,N
1621019035.0,286047002.9,N
1621019035.9,286047002.9,N
1621019055.8,286047005.1,N
1621019075.6,286047004.4,N
1621019095.5,286047003.7,N
1621019115.3,286047001.7,N
1621019135.1,286047002.5,N
1621019155.9,286047002.5,N
1621019175.7,286047002.6,N
1621019195.5,286047002.5,N
1621019215.4,286047002.4,N
1621019235.2,286047002.6,N
1621019255.0,286047003.6,N
1621019256.0,286047003.6,N
1621019275.8,286047005.7,N
1621019295.6,286047010.8,Y
1621019315.5,286047006.6,P
1621019335.3,286047008.7,P
1621019355.1,286047008.1,P
1621019375.9,286047010.1,Y
1621019395.7,286047003.3,P
1621019415.6,286047006.0,P
1621019435.4,286047001.3,N
1621019455.2,286047004.1,N
1621019475.1,286047005.8,Y
1621019476.0,286047005.8,P
1621019495.8,286046998.2,N
1621019515.7,286047001.2,N
1621019535.5,286047000.2,N
1621019555.3,286047001.3,N
1621019575.2,286047003.3,N
1621019595.0,286047004.2,N
1621019595.9,286047004.2,N
1621019615.8,286047002.2,N
1621019635.6,286047002.5,N
1621019655.4,286047001.9,N
1621019675.3,286047001.6,N
1621019695.1,286047001.6,N
1621019715.9,286047001.5,N
1621019735.7,286047002.0,N
1621019755.5,286047001.9,N
1621019775.4,286047005.1,N
1621019795.2,286047007.4,Y
1621019815.0,286047003.0,P
1621019816.0,286047003.0,P
1621019835.8,286047005.7,P
1621019855.6,286047006.3,Y
1621019875.5,286047005.9,P
1621019895.3,286047006.0,P
1621019915.1,286047003.4,N
1621019935.9,286047003.9,Y
1621019955.7,286046999.2,P
1621019975.6,286046999.4,N
1621019995.4,286046999.1,N
1621020015.2,286047000.4,N
1621020035.1,286047001.4,N
1621020036.0,286047001.4,N
1621020055.8,286047001.9,N
1621020075.7,286047003.9,N
1621020095.5,286047002.9,N
1621020115.3,286047007.2,Y
1621020135.2,286047001.3,P
1621020155.0,286047003.6,P
1621020155.9,286047003.6,P
1621020175.8,286047004.2,Y
1621020195.6,286047000.0,P
1621020215.4,286047001.4,N
1621020235.3,286047003.7,P
1621020255.1,286047004.1,N
1621020275.9,286047005.3,Y
1621020295.7,286047001.7,P
1621020315.5,286047002.8,P
1621020335.4,286047001.4,P
1621020355.2,286047003.4,Y
1621020375.1,286047003.9,P
1621020376.0,286047003.9,P
1621020395.8,286047001.9,N
1621020415.6,286047003.5,Y
1621020435.5,286047004.3,P
1621020455.3,286047004.0,P
1621020475.1,286047001.6,N
1621020495.9,286047005.6,Y
1621020515.7,286047003.2,P
1621020535.6,286047003.8,P
1621020555.4,286047001.6,P
1621020575.2,286047001.8,N
1621020595.1,286047004.3,Y
1621020596.0,286047004.3,P
1621020615.8,286047003.7,P
1621020635.7,286047004.8,P
1621020655.5,286047005.3,Y
1621020675.3,286047000.9,P
1621020695.2,286047002.8,N
1621020715.0,286047001.4,N
1621020715.9,286047001.4,N
1621020735.8,286047004.2,Y
1621020755.6,286046996.9,P
1621020775.4,286047001.2,N
1621020795.3,286047000.0,N
1621020815.1,286047000.2,N
1621020835.9,286047002.1,N
1621020855.7,286047005.1,N
1621020875.5,286047005.7,N
1621020895.4,286047003.3,N
1621020915.2,286047008.6,Y
1621020935.0,286047004.8,P
1621020935.9,286047004.8,P
1621020955.8,286047008.3,P
1621020975.6,286047012.4,Y
1621020995.5,286047004.9,P
1621021015.3,286047003.1,P
1621021035.1,286047007.0,P
1621021055.9,286047007.7,Y
1621021075.7,286047007.6,P
1621021125.6,286047005.0,E
1621021135.5,286047003.1,N
1621021155.3,286046999.8,P
1621021175.2,286047002.0,N
1621021195.0,286047002.4,N
1621021195.9,286047002.4,N
1621021215.8,286047004.4,Y
1621021235.6,286047000.2,P
1621021255.4,286047002.7,P
1621021275.3,286047004.4,P
1621021295.1,286047001.8,N
1621021315.9,286047003.5,N
1621021335.7,286047006.9,Y
1621021355.5,286047006.4,P
1621021375.4,286047010.8,P
1621021395.2,286047008.4,N
1621021415.1,286047006.5,N
1621021416.0,286047006.5,N
1621021435.8,286047006.3,N
1621021455.6,286047011.0,Y
1621021475.5,286047004.5,P
1621021495.3,286047005.9,P
1621021515.1,286047007.5,P
1621021535.9,286047006.2,Y
1621021555.7,286047000.7,P
1621021575.6,286046998.8,N
1621021595.4,286047001.0,N
1621021615.2,286046999.9,N
1621021635.1,286047003.7,N
1621021636.0,286047003.7,N
1621021655.8,286047005.3,N
1621021675.7,286047007.3,N
1621021695.5,286047010.3,Y
1621021715.3,286047007.2,P
1621021735.2,286047006.5,P
1621021755.0,286047009.0,P
1621021755.9,286047009.0,Y
1621021775.8,286047000.0,P
1621021795.6,286047003.5,N
1621021815.4,286047004.2,N
1621021835.3,286046999.4,N
1621021855.1,286046997.2,N
1621021875.8,286046999.1,N
1621021895.7,286046998.0,N
1621021915.5,286046996.9,N
1621021935.4,286046999.3,N
1621021955.2,286046999.8,N
1621021975.0,286047001.7,N
1621021975.9,286047001.7,N
1621021995.8,286047005.2,N
1621022015.6,286047008.6,N
1621022035.5,286047010.9,Y
1621022055.3,286047016.6,P
1621022075.1,286047023.1,P
1621022095.9,286047023.7,N
1621022115.7,286047028.0,Y
1621022135.5,286047015.5,P
1621022155.4,286047016.9,P
1621022175.2,286047021.2,P
1621022195.1,286047023.4,Y
1621022196.0,286047023.4,P
1621022215.8,286047005.8,N
1621022235.6,286047008.7,N
1621022255.5,286047009.9,N
1621022275.3,286047014.4,N
1621022295.2,286047042.9,Y
1621022315.9,286047009.5,P
1621022335.7,286047015.7,P
1621022355.6,286047022.6,P
1621022375.4,286047029.9,Y
1621022395.2,286047018.9,P
